Torna al catalogo

STARLINK-37320

AttivoComunicazioniVLEO
NORAD 68711·PAYLOAD·🇺🇸 United States

Lanciato Apr 14, 2026 da Cape Canaveral Space Force Station

Loading…

Prossimi Passaggi (prossime 24 ore)

TLE

AggiornatoSource: CelesTrak SupGP

Epoca: Sep 15, 2026, 04:11 UTC

1 68711C 26081N   26258.17479167 -.00047603  00000+0 -14065-2 0  2582
2 68711  53.1582 230.6824 0001360  88.4638 140.2763 15.34413744    11

Traccia STARLINK-37320 in tempo reale con AllMySat

Download on the App Store